SEEDS II (CO-66) (32791 NORAD) Tracking and Keplerian Element Data

This shows tracking and keplerian element data for the satellite.

Feedback or suggestion? Click here.




ElementValue
Catalog32791
NameSEEDS II (CO-66)
Epoch Orbit79047
Epoch Day324.46065091
Epoch Year2022
RAAN295.9333
Inclination97.6308
Eccentricity0.0013726
Argument of Perigee36.3456
Mean Anonmoly323.8693
Mean Motion14.93648713
Decay Rate3.513E-05
L11 32791U 08021J 22324.46065091 .00003513 00000+0 33714-3 0 9999
L22 32791 97.6308 295.9333 0013726 36.3456 323.8693 14.93648713790474



Live tracking and technical data element details for SEEDS II (CO-66) (NORAD 32791). SEEDS II (CO-66) can be tracked NOW for your location showing map with azimuth and elevation plus other details from your city location.







IsCatalogInMostPopularTable: catalog: 32791, numindb: 372
Update: records affected: 1



GetName: 32791 SEEDS II (CO-66)

Hit Count: updated at: Fri, 02 Dec 2022 13:53:30 GMT